Weather History for Doha International Airport, Qatar

Change the Weather History Date:

Tuesday, May 28, 2013

  Actual Average Record
Temperature  
Mean Temperature 92 °F -  
Max Temperature 103 °F 106 °F - ()
Min Temperature 82 °F 82 °F - ()
Cooling Degree Days 28    
Growing Degree Days 42 (Base 50)    
Moisture  
Dew Point 66 °F    
Average Humidity 46    
Maximum Humidity 84    
Minimum Humidity 14    
Precipitation  
Precipitation 0.00 in 0.00 in - ()
Sea Level Pressure  
Sea Level Pressure 29.67 in    
Wind  
Wind Speed 6 mph ()    
Max Wind Speed 15 mph    
Max Gust Speed -    
Visibility 7.5 miles    
Events      
T = Trace of Precipitation, MM = Missing Value Source: Averaged Metar Reports

Daily Weather History Graph

Daily Weather History Graph

Search for Another Location

Airport:

Trip Planner

Search our weather history database for the weather conditions in past years. The results will help you decide how hot, cold, wet, or windy it might be!

Date:

Astronomy

May. 28, 2013 Rise Set
Actual Time 4:44 AM AST 6:18 PM AST
Civil Twilight 4:18 AM AST 6:43 PM AST
Nautical Twilight 3:48 AM AST 7:13 PM AST
Astronomical Twilight 3:16 AM AST 7:45 PM AST
Moon 9:35 PM AST (5/28) 7:57 AM AST (5/28)
Length of Visible Light 14h 24m
Length of Day
13h 33m
Waning Gibbous, 85% of the Moon is Illuminated
May 28
Waning Gibbous
May 31
Last Quarter
Jun 8
New
Jun 16
First Quarter
Jun 23
Full

Hourly Weather History & Observations

Time (AST) Temp. Heat Index Dew Point Humidity Pressure Visibility Wind Dir Wind Speed Gust Speed Precip Events Conditions
12:00 AM 87.8 °F 92.6 °F 69.8 °F 55% 29.65 in - North 5.8 mph - N/A   Clear
12:30 AM 86.0 °F 95.1 °F 75.2 °F 70% 29.62 in - North 5.8 mph - N/A   Clear
1:00 AM 86.0 °F 95.1 °F 75.2 °F 70% 29.62 in - North 4.6 mph - N/A   Clear
2:00 AM 86.0 °F 95.1 °F 75.2 °F 70% 29.62 in - North 6.9 mph - N/A   Clear
2:30 AM 86.0 °F 96.9 °F 77.0 °F 74% 29.62 in - NE 3.5 mph - N/A   Unknown
3:00 AM 85 °F - 78 °F 75% 29.64 in 7 mi 2.3 mph - -  
3:00 AM 84.2 °F 96.1 °F 78.8 °F 84% 29.62 in - Variable 2.3 mph - N/A   Clear
3:30 AM 84.2 °F 92.3 °F 75.2 °F 74% 29.62 in - North 4.6 mph - N/A   Clear
4:00 AM 84.2 °F 94.1 °F 77.0 °F 79% 29.62 in - NNW 3.5 mph - N/A   Clear
4:30 AM 84.2 °F 94.1 °F 77.0 °F 79% 29.65 in - North 6.9 mph - N/A   Clear
5:00 AM 82.4 °F 90.9 °F 77.0 °F 84% 29.65 in 5.6 mi North 5.8 mph - N/A   Unknown
5:30 AM 84.2 °F 94.1 °F 77.0 °F 79% 29.65 in - NNE 4.6 mph - N/A   Clear
6:00 AM 86.0 °F 95.1 °F 75.2 °F 70% 29.68 in - North 5.8 mph - N/A   Clear
6:30 AM 87.8 °F 95.6 °F 73.4 °F 62% 29.68 in - NNE 6.9 mph - N/A   Clear
7:30 AM 93.2 °F 97.7 °F 68.0 °F 44% 29.68 in - NNE 4.6 mph - N/A   Clear
8:00 AM 95.0 °F 98.5 °F 66.2 °F 39% 29.71 in - NE 4.6 mph - N/A   Clear
8:30 AM 96.8 °F 97.1 °F 60.8 °F 30% 29.71 in - ENE 5.8 mph - N/A   Clear
9:00 AM 99 °F - 54 °F 14% 29.73 in 9 mi ESE 6.9 mph - -  
9:00 AM 98.6 °F 97.2 °F 55.4 °F 24% 29.71 in - ESE 6.9 mph - N/A   Clear
9:30 AM 98.6 °F 96.4 °F 53.6 °F 22% 29.71 in - ESE 9.2 mph - N/A   Clear
10:00 AM 96.8 °F 107.3 °F 73.4 °F 47% 29.71 in - East 8.1 mph - N/A   Clear
10:30 AM 98.6 °F 98.5 °F 59.0 °F 27% 29.71 in - East 9.2 mph - N/A   Clear
11:00 AM 100.4 °F 98.8 °F 55.4 °F 22% 29.71 in - East 9.2 mph - N/A   Clear
11:30 AM 98.6 °F 97.6 °F 57.2 °F 25% 29.71 in - ESE 10.4 mph - N/A   Clear
12:00 PM 98.6 °F 98.5 °F 59.0 °F 27% 29.71 in - East 8.1 mph - N/A   Clear
12:30 PM 100.4 °F 100.2 °F 59.0 °F 25% 29.71 in - East 9.2 mph - N/A   Clear
1:00 PM 100.4 °F 98.4 °F 53.6 °F 21% 29.68 in - East 6.9 mph - N/A   Clear
2:00 PM 102.2 °F - 50.0 °F 17% 29.65 in - East 8.1 mph - N/A   Clear
2:30 PM 102.2 °F - 48.2 °F 16% 29.65 in - East 9.2 mph - N/A   Clear
3:00 PM 100 °F - 58 °F 16% 29.67 in 9 mi East 9.2 mph - -  
3:00 PM 100.4 °F 99.7 °F 57.2 °F 24% 29.65 in - East 9.2 mph - N/A   Clear
4:00 PM 96.8 °F 96.2 °F 59.0 °F 28% 29.65 in - NNE 15.0 mph - N/A   Clear
4:30 PM 95.0 °F 99.5 °F 68.0 °F 41% 29.65 in - NNE 13.8 mph - N/A   Clear
5:00 PM 95.0 °F 97.0 °F 64.4 °F 36% 29.65 in - NNE 11.5 mph - N/A   Clear
5:30 PM 93.2 °F 94.9 °F 64.4 °F 38% 29.65 in - NNE 10.4 mph - N/A   Clear
6:00 PM 93.2 °F 94.1 °F 62.6 °F 36% 29.65 in - NNE 8.1 mph - N/A   Clear
7:00 PM 91.4 °F 94.0 °F 66.2 °F 43% 29.68 in - NNE 4.6 mph - N/A   Clear
8:00 PM 89.6 °F 93.4 °F 68.0 °F 49% 29.68 in - Variable 2.3 mph - N/A   Clear
9:00 PM 89 °F - 67 °F 38% 29.70 in 7 mi North 3.5 mph - -  
9:00 PM 89.6 °F 92.2 °F 66.2 °F 46% 29.68 in - North 3.5 mph - N/A   Clear
9:30 PM 89.6 °F 93.4 °F 68.0 °F 49% 29.68 in - North 4.6 mph - N/A   Clear
10:00 PM 87.8 °F 92.6 °F 69.8 °F 55% 29.68 in - North 2.3 mph - N/A   Clear
10:30 PM 87.8 °F 92.6 °F 69.8 °F 55% 29.68 in - Variable 2.3 mph - N/A   Clear
11:00 PM 87.8 °F 91.4 °F 68.0 °F 52% 29.68 in - North 1.2 mph - N/A   Clear
11:30 PM 87.8 °F 91.4 °F 68.0 °F 52% 29.68 in - North 3.5 mph - N/A   Clear